East Taunton, MA

10:41 PM EST on February 24, 2017 (GMT -0500)
Taunton Municipal

Weather History for KTAN - September, 2014

Change the Weather History Date:

Tuesday, September 30, 2014

  Actual Average Record
Temperature  
Mean Temperature 58 °F -  
Max Temperature 59 °F 68 °F 84 °F (1986)
Min Temperature 55 °F 43 °F 25 °F (1951)
Degree Days  
Heating Degree Days 7    
Growing Degree Days 8 (Base 50)    
Moisture  
Dew Point 55 °F    
Average Humidity 93    
Maximum Humidity 97    
Minimum Humidity 89    
Precipitation  
Precipitation 0.13 in - - ()
Sea Level Pressure  
Sea Level Pressure 30.00 in    
Wind  
Wind Speed 5 mph (NNE)    
Max Wind Speed 8 mph    
Max Gust Speed -    
Visibility 9 miles    
Events Rain    
Averages and records for this station are not official NWS values.
T = Trace of Precipitation, MM = Missing Value Source: NWS Daily Summary

Daily Weather History Graph

Daily Weather History Graph

Search for Another Location

Airport or City:

Trip Planner

Search our weather history database for the weather conditions in past years. The results will help you decide how hot, cold, wet, or windy it might be!

Date:

Astronomy

Sep. 30, 2014 Rise Set
Actual Time 6:39 AM EDT 6:27 PM EDT
Civil Twilight 6:12 AM EDT 6:55 PM EDT
Nautical Twilight 5:39 AM EDT 7:27 PM EDT
Astronomical Twilight 5:06 AM EDT 8:00 PM EDT
Moon 12:49 PM EDT (9/30) 10:50 PM EDT (9/30)
Length of Visible Light 12h 43m
Length of Day
11h 47m
Waxing Crescent, 38% of the Moon is Illuminated
Sep 30
Waxing Crescent
Oct 1
First Quarter
Oct 8
Full
Oct 15
Last Quarter
Oct 23
New

Hourly Weather History & Observations

Time (EDT) Temp. Dew Point Humidity Pressure Visibility Wind Dir Wind Speed Gust Speed Precip Events Conditions
12:52 AM 59.0 °F 57.9 °F 96% 29.99 in 8.0 mi NNE 5.8 mph - N/A   Overcast
1:52 AM 57.9 °F 57.0 °F 97% 30.00 in 7.0 mi North 3.5 mph - N/A   Overcast
2:29 AM 57.9 °F 55.9 °F 93% 30.00 in 10.0 mi Calm Calm - N/A   Overcast
2:52 AM 57.9 °F 55.9 °F 93% 29.99 in 9.0 mi North 4.6 mph - N/A   Overcast
3:13 AM 57.9 °F 55.9 °F 93% 29.98 in 9.0 mi North 6.9 mph - N/A   Overcast
3:52 AM 57.9 °F 55.9 °F 93% 29.98 in 10.0 mi North 5.8 mph - N/A   Overcast
4:06 AM 57.9 °F 55.9 °F 93% 29.98 in 10.0 mi Variable 4.6 mph - N/A   Overcast
4:52 AM 57.9 °F 55.9 °F 93% 29.98 in 9.0 mi Variable 4.6 mph - N/A   Overcast
5:52 AM 57.9 °F 55.0 °F 90% 29.99 in 10.0 mi Variable 5.8 mph - N/A   Overcast
6:50 AM 57.2 °F 55.4 °F 94% 30.01 in 8.0 mi Variable 4.6 mph - N/A   Overcast
6:52 AM 57.0 °F 55.0 °F 93% 30.01 in 9.0 mi NNE 5.8 mph - N/A   Overcast
7:52 AM 57.0 °F 55.0 °F 93% 30.01 in 9.0 mi Variable 4.6 mph - N/A   Overcast
8:52 AM 57.0 °F 55.0 °F 93% 30.03 in 7.0 mi NNE 5.8 mph - 0.00 in Rain Light Rain
9:22 AM 57.0 °F 55.0 °F 93% 30.03 in 8.0 mi North 3.5 mph - 0.01 in Rain Light Rain
9:52 AM 57.0 °F 55.9 °F 96% 30.04 in 7.0 mi North 4.6 mph - 0.02 in Rain Light Rain
10:16 AM 57.9 °F 55.9 °F 93% 30.03 in 8.0 mi North 4.6 mph - 0.01 in Rain Light Rain
10:52 AM 57.9 °F 55.9 °F 93% 30.03 in 10.0 mi Variable 3.5 mph - 0.03 in Rain Light Rain
11:52 AM 57.9 °F 55.9 °F 93% 30.02 in 10.0 mi North 8.1 mph - 0.01 in Rain Light Rain
12:52 PM 59.0 °F 55.9 °F 90% 30.01 in 10.0 mi NE 5.8 mph - 0.01 in Rain Light Rain
1:23 PM 57.9 °F 55.9 °F 93% 30.00 in 10.0 mi North 6.9 mph - 0.01 in Rain Light Rain
1:52 PM 57.9 °F 55.9 °F 93% 30.00 in 10.0 mi Calm Calm - 0.01 in Rain Light Rain
2:00 PM 57.9 °F 55.9 °F 93% 29.99 in 10.0 mi Variable 4.6 mph - 0.01 in Rain Light Rain
2:52 PM 57.9 °F 55.9 °F 93% 29.99 in 8.0 mi Variable 4.6 mph - 0.03 in Rain Light Rain
3:52 PM 57.9 °F 55.0 °F 90% 29.99 in 10.0 mi Variable 5.8 mph - 0.01 in Rain Light Rain
4:52 PM 57.0 °F 55.0 °F 93% 29.99 in 10.0 mi NNE 4.6 mph - 0.01 in Rain Light Rain
5:17 PM 57.0 °F 55.0 °F 93% 29.99 in 10.0 mi North 6.9 mph - 0.00 in Rain Light Rain
5:27 PM 57.0 °F 55.0 °F 93% 29.99 in 10.0 mi NNE 5.8 mph - 0.00 in Rain Light Rain
5:52 PM 57.0 °F 55.0 °F 93% 30.00 in 10.0 mi Variable 3.5 mph - 0.00 in   Overcast
6:04 PM 57.0 °F 55.0 °F 93% 30.01 in 10.0 mi Variable 4.6 mph - N/A   Overcast
6:34 PM 57.0 °F 54.0 °F 89% 30.01 in 10.0 mi Variable 4.6 mph - N/A   Overcast
6:52 PM 57.0 °F 54.0 °F 89% 30.01 in 10.0 mi Variable 4.6 mph - N/A   Overcast
7:14 PM 57.0 °F 54.0 °F 89% 30.01 in 10.0 mi NNE 5.8 mph - N/A   Overcast
7:33 PM 55.9 °F 54.0 °F 93% 30.00 in 10.0 mi NNE 6.9 mph - N/A   Overcast
7:52 PM 55.9 °F 54.0 °F 93% 30.01 in 10.0 mi NNE 8.1 mph - N/A   Overcast
8:52 PM 57.0 °F 55.0 °F 93% 30.02 in 10.0 mi Variable 5.8 mph - N/A   Overcast
9:31 PM 57.0 °F 55.0 °F 93% 30.01 in 10.0 mi Variable 6.9 mph - N/A   Overcast
9:52 PM 61.0 °F 59.0 °F 93% 29.99 in 3.0 mi NNE 4.6 mph - N/A   Overcast
10:00 PM 57.0 °F 55.0 °F 93% 30.01 in 10.0 mi North 3.5 mph - N/A   Overcast
10:52 PM 57.0 °F 55.0 °F 93% 30.01 in 10.0 mi North 5.8 mph - N/A   Overcast
11:52 PM 57.0 °F 55.0 °F 93% 30.01 in 10.0 mi Variable 3.5 mph - N/A   Overcast